Weather in Cherkessk

Russia / Karachay-Cherkess Republic     44°13′36″N   42°02′48″E
temp.,
°C
wind,
m/s
gust,
m/s
humid.,
%
clouds,
%
prec.,
mm/h
press.,
hPa
HPBL,
m
17 june, thu
thu1700:00+17ese11941 0.0 100512
03:00+16s11941 0.0 100412
06:00+18w41295100 0.0 1007768
09:00+18wnw6109394 0.1 1010675
12:00+20nnw688499 2.1 1012958
15:00+19nnw4591100 10.3 1014621
18:00+19nnw368565 0.4 1015646
21:00+16w229064 0.4 101729
18 june, fri
fri1800:00+15w119255 0.0 101812
03:00+15ssw009018 0.0 101710
06:00+15sw018886 0.0 101862
09:00+19e11706 0.0 1017573
12:00+22ene456336 0.0 10161294
15:00+23ene456549 0.0 10151325
18:00+21ene477996 0.0 1016283
21:00+17e22900 0.0 101729
19 june, sat
sat1900:00+15se22910 0.0 101615
03:00+14ese22920 0.0 101617
06:00+16ese14894 0.0 1015146
09:00+21e71176100 0.0 1014833
12:00+24e91373100 0.0 10121173
15:00+25e10157598 0.0 10111243
18:00+23e918760 0.0 10111169
21:00+21e918680 0.0 1011760
20 june, sun
sun2000:00+19ese613678 0.0 1011363
03:00+15ese358916 0.0 1012118
06:00+16ese25900 0.0 1013181
09:00+21e33760 0.0 1012439
12:00+25e45690 0.0 1011781
15:00+26e45685 0.0 1011970
18:00+26e35751 0.0 1011384
21:00+20e33900 0.0 101144
21 june, mon
mon2100:00+17e36860 0.0 1011126
03:00+16ese23840 0.0 101162
06:00+16ese24820 0.0 1011107
09:00+22e34710 0.0 1010365
12:00+25ene33660 0.0 1011788
15:00+27e33666 0.0 1011984
18:00+26e357536 0.0 1011299
21:00+19ese22840 0.1 101220